This is the latest recevied weather packets stored in our database for station/object W8KHW. If no packets are shown the sender has not sent any weather packets the latest 10 day(s).
| Time | Temp. | Humidity | Pressure | Rain* | Wind** | Luminosity | Snow |
|---|---|---|---|---|---|---|---|
| 1778089534 | 15° C | 53% | 1013.1 hPa | 0 mm | - | - | - |
| 1778089034 | 15° C | 52% | 1013.2 hPa | 0 mm | - | - | - |
| 1778088534 | 15° C | 52% | 1013.2 hPa | 0 mm | - | - | - |
| 1778088034 | 16.11° C | 52% | 1013.2 hPa | 0 mm | - | - | - |
| 1778087533 | 15° C | 55% | 1012.9 hPa | 0 mm | - | - | - |
| 1778087033 | 14.44° C | 57% | 1013.2 hPa | 0 mm | - | - | - |
| 1778086533 | 15° C | 53% | 1013.3 hPa | 0 mm | - | - | - |
| 1778086033 | 14.44° C | 57% | 1013.2 hPa | 0 mm | - | - | - |
| 1778085532 | 14.44° C | 56% | 1013.1 hPa | 0 mm | - | - | - |
| 1778085032 | 15° C | 58% | 1013.5 hPa | 0 mm | - | - | - |
| 1778084532 | 14.44° C | 63% | 1013.4 hPa | 0 mm | - | - | - |
| 1778084032 | 13.89° C | 58% | 1013.4 hPa | 0 mm | - | - | - |
| 1778083531 | 13.33° C | 60% | 1012.9 hPa | 0 mm | - | - | - |
| 1778083031 | 13.89° C | 59% | 1012.8 hPa | 0 mm | - | - | - |
| 1778082531 | 12.22° C | 65% | 1013.1 hPa | 0 mm | - | - | - |
| 1778082031 | 12.78° C | 66% | 1012.6 hPa | 0 mm | - | - | - |
| 1778081531 | 12.22° C | 64% | 1012.8 hPa | 0 mm | - | - | - |
| 1778081030 | 11.67° C | 67% | 1012.8 hPa | 0 mm | - | - | - |
| 1778080530 | 12.22° C | 66% | 1012.4 hPa | 0 mm | - | - | - |
| 1778080030 | 12.78° C | 69% | 1012.5 hPa | 0 mm | - | - | - |
| 1778079530 | 11.67° C | 68% | 1012.2 hPa | 0 mm | - | - | - |
| 1778079030 | 11.11° C | 69% | 1012 hPa | 0 mm | - | - | - |
| 1778078530 | 11.11° C | 76% | 1012.3 hPa | 0 mm | - | - | - |
| 1778078029 | 11.11° C | 78% | 1012.5 hPa | 0 mm | - | - | - |
| 1778077529 | 10.56° C | 79% | 1012.1 hPa | 0 mm | - | - | - |
* Rain latest hour (hover to see other rain measurements)
** Current wind speed in m/s (hover to see current wind gust speed)